カタログに戻る

QPS-SAR-10 WADATSUMI-I

運用中科学VLEO
NORAD 64055·PAYLOAD·🇯🇵 Japan

打ち上げ May 17, 2025 から Rocket Lab Launch Complex 1

Loading…

次のパス (今後24時間)

TLE

最新Source: Space-Track

元期: Sep 14, 2026, 14:55 UTC

1 64055U 25104A   26257.62178560  .00003569  00000-0  27833-3 0  9998
2 64055  42.0033 145.4521 0014012 207.8752 152.1324 15.02410427 72884

AllMySatでQPS-SAR-10 WADATSUMI-Iをリアルタイム追跡

Download on the App Store